MST,Max TemperatureF,Mean TemperatureF,Min TemperatureF,Max Dew PointF,MeanDew PointF,Min DewpointF,Max Humidity, Mean Humidity, Min Humidity, Max Sea Level PressureIn, Mean Sea Level PressureIn, Min Sea Level PressureIn, Max VisibilityMiles, Mean VisibilityMiles, Min VisibilityMiles, Max Wind SpeedMPH, Mean Wind SpeedMPH, Max Gust SpeedMPH,PrecipitationIn, CloudCover, Events, WindDirDegrees
2014-1-1,12,6,-1,8,2,-5,95,82,73,30.46,30.29,30.08,10,6,1,20,9,23,0.01,7,Snow,311
2014-1-2,20,12,4,14,6,1,92,86,80,30.41,30.17,29.85,10,6,1,18,8,22,T,7,Snow,146
2014-1-3,43,29,14,32,22,10,92,80,64,29.88,29.59,29.37,10,6,0,47,17,53,0.06,6,Fog-Rain-Snow,305
2014-1-4,14,5,-4,8,-5,-11,84,71,59,30.44,30.26,29.94,10,10,9,32,14,37,T,4,Snow,310
2014-1-5,-4,-11,-19,-12,-22,-26,74,68,57,30.76,30.49,30.22,10,4,0,40,26,47,T,5,Snow,306
2014-1-6,8,-6,-21,3,-12,-27,86,72,63,30.63,30.34,29.91,10,8,2,25,12,30,T,4,Snow,239
2014-1-7,20,14,8,14,6,4,84,79,73,30.27,30.07,29.83,10,8,2,22,7,28,T,8,Snow,345
2014-1-8,16,11,6,12,8,2,88,86,80,30.30,30.10,29.89,10,5,1,21,13,26,T,8,Snow,145
2014-1-9,35,24,12,25,19,9,92,77,63,29.93,29.74,29.61,10,10,10,16,5,19,0.00,2,,260
2014-1-10,32,24,16,23,18,13,91,76,62,29.71,29.63,29.57,10,10,10,23,12,27,0.00,0,,292
2014-1-11,40,28,15,31,22,12,88,75,64,29.83,29.61,29.32,10,10,10,22,11,26,0.00,0,,239
2014-1-12,39,30,20,30,25,16,84,72,59,29.80,29.55,29.37,10,10,10,33,19,41,0.00,2,,281
2014-1-13,40,29,17,31,25,16,89,77,64,29.98,29.70,29.55,10,10,9,45,20,54,T,4,,281
2014-1-14,29,24,18,22,18,14,92,77,68,30.34,30.24,30.02,10,10,10,33,19,41,0.00,4,,307
2014-1-15,40,32,23,29,26,21,88,72,64,30.13,29.86,29.76,10,10,10,45,22,57,T,4,,274
2014-1-16,31,23,15,22,17,11,84,74,63,30.32,30.15,29.89,10,10,10,41,25,56,0.00,2,,308
2014-1-17,37,26,14,28,21,11,88,77,69,30.23,29.99,29.83,10,10,10,29,14,36,0.00,3,,284
2014-1-18,35,30,25,28,25,22,78,76,72,30.17,29.99,29.81,10,10,10,37,20,45,0.00,3,,299
2014-1-19,39,34,29,28,26,23,78,71,59,29.97,29.82,29.72,10,10,10,29,16,36,0.00,0,,284
2014-1-20,32,17,1,24,8,-2,87,75,66,30.55,30.32,29.98,10,9,2,48,19,61,T,4,Snow,317
2014-1-21,33,19,5,24,17,3,96,79,63,30.40,30.16,29.99,10,10,10,36,18,46,0.00,3,,289
2014-1-22,25,6,-14,18,1,-18,92,75,62,30.82,30.44,30.11,10,8,2,32,12,41,T,5,Snow,4
2014-1-23,32,8,-16,20,2,-19,83,70,55,30.82,30.52,30.07,10,10,10,26,10,33,0.00,1,,245
2014-1-24,41,36,31,32,30,22,89,79,63,30.04,29.93,29.82,10,10,10,32,23,40,0.00,6,,297
2014-1-25,46,40,33,33,31,29,92,82,58,30.06,29.88,29.58,10,10,7,30,17,43,T,6,Rain-Snow,295
2014-1-26,37,17,-4,29,4,-13,80,69,55,30.48,29.97,29.56,10,7,0,51,30,63,0.03,6,Fog-Snow,326
2014-1-27,7,0,-8,-7,-11,-14,83,68,54,30.54,30.51,30.47,10,10,10,21,12,26,0.00,0,,311
2014-1-28,20,6,-9,3,-3,-14,83,68,45,30.49,30.29,29.96,10,10,10,21,9,26,0.00,0,,265
2014-1-29,41,26,10,24,15,3,92,70,48,29.92,29.61,29.42,10,6,0,25,14,31,0.04,2,Fog-Snow,343
2014-1-30,15,5,-6,10,1,-8,87,79,67,30.12,29.86,29.53,10,7,2,23,13,27,T,5,Snow,314
2014-1-31,20,4,-12,11,1,-14,91,78,67,30.08,29.96,29.82,10,10,3,24,11,30,T,3,Snow,253